ATLAS 5 CENTAUR DEB, 43965

Orbit data source: Space-Track

ATLAS 5 CENTAUR DEB, 43965 is space debris in HEO originally from a launch on Wed, 17 Sep 2014 UTC launched from the Air Force Eastern Test Range (AFETR). Debris objects in space refer to the collection of defunct objects orbiting the Earth. Examples of debris include non-operational satellites, rocket bodies, and fragments generated from explosions, collisions, or faulty payload assembly.

Loading next visibility...
Identifier
43965, 2014-055U
Orbit
HEO
Country
Flag of USUS
Related business
Flag of USUnited Launch Alliance/Lockheed Martin (US)
Manufacturer
Unknown
Mission
Spacecraft
Bus & Motor
Unknown
Mass
Unknown
Launch date (UTC)
2014-09-17 (12 years ago)
Launch vehicle
Unknown
Launch site
Air Force Eastern Test Range (AFETR)
Object type
Payload
Rocket body
Debris
Shape & HBR
Unknown shape, 1.1 m
Radar Cross Section
Medium (>0.1 m² and <1 m²)

Expand to show TLE details & history
Last TLE update: 6 days ago

TLE from 6 days ago
0 ATLAS 5 CENTAUR DEB
1 43965U 14055U   26167.10029977 -.00000087  00000-0  00000-0 0  9995
2 43965  20.6911 124.7174 4859383 203.1545 124.3061  1.89978311 54018
Epoch: 2026-06-16T02:24Z
TLE epoch observation values (Epoch: 2026-06-16T02:24:25.900Z)
Latitude
-0.00001°
Longitude
-175.83491°
Altitude
31,654.028 km
Speed
2.547 km/s
True Right ascension
08h 18m 36s
True Declination
0° 00' 00"
Sunlit
Object was in daylight at epoch
Visualization orbit readout
Latitude
Unknown
Longitude
Unknown
Altitude
Unknown
Speed
Unknown
Apparent Right ascension
Unknown
Apparent Declination
Unknown
Sunlit
N/A
Visualization observer readout
Local Sidereal Time
21:37:43
Azimuth
Unknown
Elevation
Unknown
Doppler factor
Unknown
Orbital elements
Apogee altitude
34,544.559 km
Perigee altitude
7,779.107 km
Semi-major axis
27,539.97 km
Eccentricity
0.48594
Inclination
20.6911°
RAAN
124.7174°
Arg. of periapsis
203.1545°
True anomaly
156.84915°
Mean anomaly
124.3061°
Eccentric anomaly
141.60017°
Mean motion
0.4749 °/min
Orbital period
758.06 mins
BSTAR
0
Loading maneuver chart data...
Computing Atmospheric mass density...

Documentation

Showing up to 5 results
|